CZ-6A DEB

Satellite information

Favourite Embed

Satellite Type and Status

DEBRISIN ORBIT

Key statistics

Satellite CZ-6A DEB at a glance.

Uptime

1129

Days in orbit

Revolutions

≈ 14.9

Per day

Orbit

SSO

Sun Synchronous Orbit

Inclination

98.6

Latest

Satellite identification and parameters

Extended collection of information and parameters for CZ-6A DEB.

Object identification

Identified? True

Debris? True

Object name: CZ-6A DEB

International designator: 2022-151XN

Object number (NORAD): 55516

Object ID (CCSDS): 55516

Country: PEOPLES REPUBLIC OF CHINA (PRC)

Current information (Y/N): Y

RCS size: SMALL

Orbital parameters

Period: 96.762 minutes

Inclination: 98.6052 deg

SMA: 6981.759 km

Apoapsis: 635.239 km

Periapsis: 572.01 km

RAAN: 46.0186 deg

Eccentricy: 0.0045282

Argument of periapsis: 94.7843 deg

Mean anomaly: 265.8545 deg

Mean motion: 14.88179933 rev/day

Mean motion (dot): 0.00049998 rev/day2

B* drag term: 0.0052934461 1/REarth

Two-line elements (TLE)

Creation date: Dec. 13, 2025, 5:47 p.m.

Reference frame: TEME

Reference center: EARTH

Epoch: Dec. 13, 2025, 2:55 a.m. UTC

TLE line 0: 0 CZ-6A DEB

TLE line 1: 1 55516U 22151XN 25347.12219159 .00049998 00000-0 52934-2 0 9998

TLE line 2: 2 55516 98.6052 46.0186 0045282 94.7843 265.8545 14.88179933158647

Live tracking on map

Real-time ground track for satellite CZ-6A DEB.

In-orbit conjunctions

A list of the most updated potential collisions computed for object CZ-6A DEB.

Target Orbit TCA Probability of collision Miss distance Type
SL-14 R/B LEO 2025-12-05 17:01:01 0.0001361167 190.0 (m) ROCKET BODY
RUBIN 3/SL-8 SSO 2025-03-31 20:43:19 0.0001038821 606.0 (m) PAYLOAD

Associated space launch

Chinese satellite reported for atmospheric/ocean/environmental/spatial parameter research purposes, details TBD.

CZ-6A DEB was lifted into orbit during the mission ‘Long March 6A | Yunhai 3’, on board a Long March 6A space rocket.

The launch took place on Nov. 11, 2022, 10:52 p.m. from Launch Complex 9A.

For more information about the launch, click the button.

Launch to space Long March 6A | Yunhai 3
Long March 6A | Yunhai 3

Agency: N/A

Status: Launch Successful

Launch date: Nov. 11, 2022, 10:52 p.m. UTC

Rocket: Long March 6A

Launch pad: Launch Complex 9A

Location: Taiyuan Satellite Launch Center, People's Republic of China

...

Latest news about this satellite

There are no fresh news available about this satellite. Check back as we update our databases every day.


Newsletter sign-up

Weekly statistics, charts and insights to help you stay on top of the space industry.